Inquirer Daily News

Weather

Get conditions and forecasts for any City, State, ZIP code or Country:  
Northeast Philadelphia, PA
on Tuesday, December 4, 2012

Tuesday
Previous Day Next Day
Daily Summary
 ActualAverage (KTTN)Record (KTTN)
Temperature
Mean Temperature °F 39°F  
Max Temperature 66°F 47°F 73°F (1998)
Min Temperature 48°F 32°F 10°F (1906)
Degree Days
Heating Degree Days 8 26  
Month to date heating degree days 101  
Since 1 July heating degree days 1077  
Cooling Degree Days 0 0  
Month to date cooling degree days 0  
Year to date cooling degree days 965  
Growing Degree Days7 (Base °F )  
Moisture
Dew Point 51°F   
Average Humidity 80    
Maximum Humidity 97    
Minimum Humidity 63    
Precipitation
Precipitation 0.00 in 0.14 in 1.77 in (1927)
Month to date precipitation 0.58  
Year to date precipitation 43.32  
Wind
Wind Speed 2 mph   
Max Wind Speed 8 mph   
Max Gust Speed mph   
Visibility 8 miles   
Events Rain   

Key: T is trace of precipitation, MM is missing value
Source: NWS Daily Summary
Time(EST)TemperatureDew PointHumidity Pressure Visibility Wind DirectionWind SpeedGust SpeedPrecipitationEvents Conditions
12:54 AM 51.1°F 48.0°F 89% 30.26 in 8.0 miles Calm Calm - N/A   Overcast
1:54 AM 50.0°F 46.9°F 89% 30.27 in 8.0 miles NNE 3.5 mph - N/A   Overcast
2:54 AM 51.1°F 48.0°F 89% 30.26 in 8.0 miles Calm Calm - N/A   Overcast
3:54 AM 51.1°F 48.0°F 89% 30.25 in 8.0 miles Calm Calm - N/A   Overcast
4:54 AM 51.1°F 48.0°F 89% 30.26 in 7.0 miles Calm Calm - N/A   Overcast
5:54 AM 51.1°F 48.9°F 92% 30.26 in 7.0 miles Calm Calm - 0.00 in Rain Light Rain
6:54 AM 50.0°F 48.9°F 96% 30.27 in 6.0 miles East 3.5 mph - 0.00 in   Mostly Cloudy
7:54 AM 48.9°F 48.0°F 97% 30.27 in 3.0 miles Calm Calm - N/A   Partly Cloudy
8:54 AM 53.1°F 51.1°F 93% 30.27 in 4.0 miles Calm Calm - N/A   Partly Cloudy
9:54 AM 55.9°F 51.1°F 84% 30.27 in 7.0 miles SSE 3.5 mph - N/A   Unknown
10:54 AM 60.1°F 52.0°F 75% 30.25 in 8.0 miles Calm Calm - N/A   Scattered Clouds
11:54 AM 64.0°F 53.1°F 67% 30.22 in 10.0 miles SW 5.8 mph - N/A   Clear
12:54 PM 66.2°F 53.6°F 64% 30.18 in 10.0 miles South 6.9 mph - N/A   Clear
1:54 PM 66.0°F 53.1°F 63% 30.15 in 10.0 miles SW 4.6 mph - N/A   Mostly Cloudy
2:54 PM 64.9°F 52.0°F 63% 30.14 in 10.0 miles SW 8.1 mph - N/A   Mostly Cloudy
3:54 PM 64.0°F 53.1°F 67% 30.14 in 10.0 miles SSW 4.6 mph - N/A   Clear
4:54 PM 62.1°F 52.0°F 70% 30.12 in 10.0 miles Calm Calm - N/A   Clear
5:54 PM 59.0°F 52.0°F 78% 30.11 in 10.0 miles Calm Calm - N/A   Clear
6:54 PM 60.1°F 52.0°F 75% 30.09 in 10.0 miles South 4.6 mph - N/A   Clear
7:54 PM 59.0°F 52.0°F 78% 30.09 in 10.0 miles Calm Calm - N/A   Clear
8:54 PM 57.9°F 51.1°F 78% 30.06 in 10.0 miles SSW 4.6 mph - N/A   Clear
9:54 PM 59.0°F 51.1°F 75% 30.04 in 10.0 miles SSW 5.8 mph - N/A   Scattered Clouds
10:54 PM 59.0°F 51.1°F 75% 30.03 in 10.0 miles SSW 5.8 mph - N/A   Overcast
11:54 PM 59.0°F 51.1°F 75% 30.00 in 10.0 miles SSW 5.8 mph - 0.00 in   Overcast
Astronomy
Sunrise:07:06 AM (EST) Moon Rise:10:19 PM (EST)12/4
Sunset:04:34 PM (EST) Moon Set:10:59 AM (EST)12/4
Moon Phase
Dec. 04 Dec. 06 Dec. 13 Dec. 20 Dec. 28

Copyright © 2014 The Weather Underground, Inc.